This demonstration page uses our WeatherBlox Daily Observations layout. Learn more.

Left ArrowRight Arrow

Hourly Observations for July 6, 2022

Temp ( °F °C ) Dew Point ( °F °C ) Humidity (%) Winds ( mph kmh ) Pressure ( in mb ) Visibility ( mi km ) Precip ( " mm )
12:35 am 00:35 Cloudy with Light Rain 70 21 66 19 88 88 SSE 24 39 29.80 1009 10 16 0.00 0.00
12:48 am 00:48 Cloudy with Nearby Thunderstorms 70 21 64 18 83 83 SSE 24 39 29.82 1010 10 16 0.00 0.00
12:56 am 00:56 Cloudy with Nearby Thunderstorms 69 20.6 65 18.3 87 87 SSE 24 39 29.83 1010 10 16 0.01 0.25
1:46 am 01:46 Mostly Cloudy with Light Rain 72 22 66 19 83 83 WNW 8 13 29.90 1013 10 16 0.00 0.00
1:56 am 01:56 Mostly Cloudy with Light Rain 71 21.7 67 19.4 87 87 WNW 10 17 29.94 1014 10 16 0.00 0.00
2:56 am 02:56 Cloudy with Light Rain 70 21.1 68 20 93 93 N 7 11 29.90 1013 10 16 0.02 0.51
3:40 am 03:40 Cloudy 70 21 68 20 94 94 N 15 24 29.91 1013 10 16 0.00 0.00
3:56 am 03:56 Mostly Cloudy 70 21.1 68 20 93 93 NNE 14 22 29.93 1014 10 16 0.00 0.00
4:56 am 04:56 Mostly Cloudy 68 20 67 19.4 96 96 E 10 17 29.93 1014 10 16 0.00 0.00
5:11 am 05:11 Mostly Cloudy 68 20 66 19 94 94 E 13 20 29.91 1013 10 16 0.00 0.00
5:56 am 05:56 Clear 68 20 67 19.4 96 96 ENE 10 17 29.89 1012 10 16 0.00 0.00
6:56 am 06:56 Sunny 68 20 67 19.4 96 96 E 3 6 29.91 1013 10 16 0.00 0.00
7:49 am 07:49 Mostly Sunny 70 21 66 19 88 88 ENE 10 17 29.89 1012 10 16 0.00 0.00
7:56 am 07:56 Sunny 69 20.6 67 19.4 93 93 ENE 12 19 29.92 1013 10 16 0.00 0.00
8:56 am 08:56 Sunny 71 21.7 68 20 90 90 ENE 8 13 29.93 1014 10 16 0.00 0.00
9:56 am 09:56 Sunny 73 22.8 68 20 84 84 NE 10 17 29.95 1014 10 16 0.00 0.00
10:56 am 10:56 Sunny 79 26.1 68 20 69 69 NE 15 24 29.93 1014 10 16 0.00 0.00
11:56 am 11:56 Sunny 81 27.2 68 20 65 65 ENE 14 22 29.94 1014 10 16 0.00 0.00
12:34 pm 12:34 Mostly Cloudy 82 28 70 21 66 66 ENE 14 22 29.88 1012 10 16 0.00 0.00
12:44 pm 12:44 Partly Cloudy 82 28 70 21 66 66 ENE 13 20 29.88 1012 10 16 0.00 0.00
12:56 pm 12:56 Mostly Cloudy 82 27.8 69 20.6 65 65 E 14 22 29.96 1015 10 16 0.00 0.00
1:56 pm 13:56 Partly Cloudy 84 28.9 69 20.6 61 61 E 12 19 29.95 1014 10 16 0.00 0.00
2:56 pm 14:56 Partly Cloudy 85 29.4 69 20.6 59 59 ENE 13 20 29.94 1014 10 16 0.00 0.00
3:56 pm 15:56 Cloudy 83 28.3 69 20.6 63 63 E 9 15 29.94 1014 10 16 0.00 0.00
4:56 pm 16:56 Partly Cloudy 82 27.8 70 21.1 67 67 E 9 15 29.93 1014 10 16 0.00 0.00
5:56 pm 17:56 Mostly Sunny 83 28.3 71 21.7 67 67 E 9 15 29.91 1013 10 16 0.00 0.00
6:56 pm 18:56 Partly Cloudy 82 27.8 70 21.1 67 67 E 13 20 29.89 1012 10 16 0.00 0.00
7:47 pm 19:47 Mostly Sunny 82 28 72 22 70 70 E 13 20 29.85 1011 10 16 0.00 0.00
7:56 pm 19:56 Sunny 82 27.8 72 22.2 72 72 E 10 17 29.92 1013 10 16 0.00 0.00
8:56 pm 20:56 Mostly Sunny 79 26.1 72 22.2 79 79 ESE 7 11 29.92 1013 10 16 0.00 0.00
9:56 pm 21:56 Mostly Cloudy 76 24.4 73 22.8 91 91 ENE 8 13 29.92 1013 10 16 0.00 0.00
10:56 pm 22:56 Mostly Clear 74 23.3 72 22.2 94 94 Calm 29.92 1013 10 16 0.00 0.00
11:56 pm 23:56 Partly Cloudy 73 22.8 72 22.2 96 96 NNE 8 13 29.91 1013 8 13 0.00 0.00

Powered by AerisWeather